Location: 10033 Water Well
(34.0865°N, 106.8959°W)
Time: 17:16:23
(UTC+00:00)

OAO 3 Rocket - Pass Details

Date: 13 January 2026
Orbit: 613 x 660 km, 35.0° (Epoch: 11 February)

Event Time Altitude Azimuth Distance (km) Brightness Sun altitude
Rises 00:43:18 0° 279° (W) 2,980 7.7 -5.5°
Reaches altitude 10° 00:45:40 10° 279° (W) 2,068 6.8 -5.9°
Maximum altitude 00:50:31 89° 197° (SSW) 660 3.2 -6.9°
Drops below altitude 10° 00:55:20 10° 101° (E) 2,054 5.2 -7.8°
Enters shadow 00:56:18 - 101° (E) 2,425 5.6 -8.0°
